�������l�o���
Date,Time,MP-1(��Sv/h),MP-2(��Sv/h),MP-3(��Sv/h),MP-4(��Sv/h),MP-5(��Sv/h),MP-6(��Sv/h),MP-7(��Sv/h),MP-8(��Sv/h),����,����(m/s),���J
2017/11/19,00:00,0.934,1.504,0.957,1.787,1.229,0.506,0.916,0.859,�k��,8.1,�L
2017/11/19,00:10,0.932,1.506,0.957,1.788,1.226,0.504,0.917,0.858,�k�k��,9.1,�L
2017/11/19,00:20,0.931,1.508,0.956,1.784,1.228,0.505,0.916,0.860,�k�k��,9.6,�L
2017/11/19,00:30,0.933,1.505,0.953,1.787,1.227,0.505,0.915,0.856,�k�k��,8.0,��
2017/11/19,00:40,0.931,1.505,0.954,1.786,1.225,0.503,0.915,0.858,�k�k��,7.2,��
2017/11/19,00:50,0.932,1.506,0.956,1.787,1.226,0.505,0.916,0.858,�k�k��,8.2,��
2017/11/19,01:00,0.933,1.505,0.957,1.789,1.226,0.504,0.917,0.855,�k��,7.4,��
2017/11/19,01:10,0.931,1.504,0.957,1.787,1.226,0.505,0.916,0.859,�k��,7.8,��
2017/11/19,01:20,0.932,1.503,0.956,1.782,1.229,0.505,0.915,0.857,�k��,7.6,��
2017/11/19,01:30,0.932,1.505,0.955,1.786,1.227,0.504,0.916,0.858,�k�k��,6.9,��
2017/11/19,01:40,0.932,1.506,0.955,1.784,1.225,0.505,0.916,0.858,�k��,9.1,��
2017/11/19,01:50,0.931,1.505,0.956,1.786,1.225,0.503,0.916,0.858,�k��,8.8,��
2017/11/19,02:00,0.931,1.504,0.955,1.785,1.226,0.503,0.917,0.857,�k��,8.0,��
2017/11/19,02:10,0.931,1.503,0.954,1.782,1.226,0.503,0.917,0.858,�k��,7.5,��
2017/11/19,02:20,0.931,1.504,0.957,1.786,1.227,0.504,0.916,0.857,�k�k��,10.3,��
2017/11/19,02:30,0.933,1.505,0.954,1.785,1.225,0.502,0.916,0.857,�k�k��,10.2,��
2017/11/19,02:40,0.932,1.503,0.956,1.784,1.226,0.502,0.916,0.857,�k�k��,10.5,��
2017/11/19,02:50,0.932,1.503,0.956,1.781,1.227,0.503,0.916,0.859,�k�k��,10.2,��
2017/11/19,03:00,0.932,1.504,0.955,1.786,1.226,0.503,0.914,0.858,�k�k��,11.0,��
2017/11/19,03:10,0.931,1.504,0.955,1.786,1.226,0.501,0.917,0.858,�k�k��,12.4,��
2017/11/19,03:20,0.932,1.505,0.954,1.784,1.227,0.502,0.917,0.858,�k��,10.2,��
2017/11/19,03:30,0.933,1.504,0.957,1.786,1.226,0.502,0.917,0.857,�k��,8.0,��
2017/11/19,03:40,0.931,1.503,0.955,1.784,1.224,0.502,0.918,0.859,�k��,11.4,��
2017/11/19,03:50,0.932,1.503,0.956,1.789,1.226,0.503,0.917,0.856,�k��,10.5,��
2017/11/19,04:00,0.930,1.504,0.954,1.785,1.226,0.504,0.917,0.858,�k��,10.8,��
2017/11/19,04:10,0.932,1.508,0.954,1.786,1.226,0.501,0.914,0.858,�k��,9.4,��
2017/11/19,04:20,0.931,1.503,0.954,1.786,1.227,0.502,0.918,0.857,���k��,12.4,��
2017/11/19,04:30,0.930,1.505,0.953,1.783,1.225,0.503,0.917,0.855,�k��,9.6,��
2017/11/19,04:40,0.931,1.503,0.953,1.787,1.225,0.504,0.915,0.859,�k��,9.1,��
2017/11/19,04:50,0.928,1.505,0.956,1.785,1.223,0.503,0.915,0.858,�k��,10.0,��
2017/11/19,05:00,0.930,1.506,0.956,1.786,1.227,0.502,0.915,0.858,�k��,10.3,��
2017/11/19,05:10,0.931,1.504,0.954,1.787,1.226,0.503,0.917,0.857,���k��,8.1,��
2017/11/19,05:20,0.930,1.502,0.955,1.786,1.223,0.504,0.917,0.857,�k��,8.1,��
2017/11/19,05:30,0.927,1.507,0.952,1.785,1.225,0.502,0.915,0.857,�k��,6.7,��
2017/11/19,05:40,0.930,1.503,0.954,1.785,1.225,0.503,0.915,0.856,���k��,6.8,��
2017/11/19,05:50,0.930,1.503,0.955,1.782,1.224,0.501,0.916,0.856,�k��,7.1,��
2017/11/19,06:00,0.931,1.504,0.953,1.785,1.223,0.503,0.916,0.856,�k��,6.8,��
2017/11/19,06:10,0.930,1.503,0.953,1.786,1.226,0.501,0.915,0.857,�k��,6.4,��
2017/11/19,06:20,0.929,1.504,0.952,1.786,1.224,0.502,0.917,0.856,�k��,5.9,��
2017/11/19,06:30,0.929,1.502,0.952,1.784,1.226,0.503,0.914,0.857,�k��,5.7,��
2017/11/19,06:40,0.929,1.505,0.953,1.782,1.224,0.501,0.914,0.856,�k��,7.3,��
2017/11/19,06:50,0.928,1.503,0.952,1.785,1.225,0.501,0.914,0.855,�k��,6.7,��
2017/11/19,07:00,0.929,1.504,0.953,1.784,1.226,0.502,0.914,0.857,�k��,6.3,��
2017/11/19,07:10,0.930,1.503,0.952,1.785,1.223,0.502,0.914,0.856,�k��,5.5,��
2017/11/19,07:20,0.929,1.503,0.953,1.784,1.226,0.502,0.915,0.857,���k��,4.6,��
2017/11/19,07:30,0.929,1.505,0.952,1.784,1.225,0.501,0.913,0.858,���k��,4.4,��
2017/11/19,07:40,0.930,1.504,0.953,1.782,1.225,0.502,0.914,0.854,��,3.2,��
2017/11/19,07:50,0.930,1.503,0.955,1.784,1.223,0.502,0.915,0.856,���k��,2.0,��
2017/11/19,08:00,0.929,1.505,0.955,1.786,1.223,0.501,0.913,0.857,���k��,2.0,��
2017/11/19,08:10,0.929,1.505,0.954,1.786,1.224,0.501,0.914,0.855,��,1.5,��
2017/11/19,08:20,0.929,1.506,0.954,1.785,1.225,0.504,0.915,0.854,���k��,2.9,��
2017/11/19,08:30,0.929,1.506,0.953,1.784,1.225,0.502,0.916,0.854,���k��,3.8,��
2017/11/19,08:40,0.931,1.507,0.955,1.785,1.227,0.503,0.915,0.855,�k��,4.5,��
2017/11/19,08:50,0.931,1.504,0.955,1.784,1.227,0.502,0.915,0.856,�k��,4.0,��
2017/11/19,09:00,0.929,1.508,0.956,1.783,1.227,0.503,0.916,0.855,�k��,3.0,��
2017/11/19,09:10,0.930,1.507,0.956,1.783,1.224,0.502,0.916,0.857,�k��,6.0,��
2017/11/19,09:20,0.930,1.504,0.953,1.785,1.227,0.502,0.916,0.857,���k��,5.0,��
2017/11/19,09:30,0.930,1.501,0.958,1.785,1.228,0.504,0.914,0.857,�k��,6.4,��
2017/11/19,09:40,0.932,1.506,0.955,1.784,1.225,0.504,0.916,0.857,�k��,11.8,��
2017/11/19,09:50,0.930,1.503,0.954,1.784,1.225,0.503,0.915,0.857,�k��,11.0,��
2017/11/19,10:00,0.930,1.504,0.956,1.786,1.227,0.502,0.912,0.855,�k��,10.7,��
2017/11/19,10:10,0.930,1.505,0.955,1.786,1.225,0.503,0.913,0.857,�k��,8.1,��
2017/11/19,10:20,0.931,1.505,0.957,1.786,1.226,0.503,0.915,0.857,���k��,8.0,��
2017/11/19,10:30,0.931,1.504,0.956,1.792,1.226,0.502,0.914,0.857,���k��,7.2,��
2017/11/19,10:40,0.930,1.504,0.958,1.786,1.229,0.503,0.915,0.855,�k��,5.0,��
2017/11/19,10:50,0.933,1.507,0.956,1.788,1.227,0.504,0.915,0.857,�k��,5.1,��
2017/11/19,11:00,0.933,1.507,0.958,1.787,1.228,0.503,0.915,0.857,�k��,4.1,��
2017/11/19,11:10,0.934,1.505,0.957,1.788,1.228,0.504,0.915,0.858,�k�k��,5.3,��
2017/11/19,11:20,0.934,1.506,0.958,1.790,1.225,0.503,0.913,0.858,�k��,4.5,��
2017/11/19,11:30,0.934,1.501,0.956,1.788,1.229,0.504,0.915,0.858,�k�k��,5.1,��
2017/11/19,11:40,0.933,1.507,0.958,1.787,1.230,0.503,0.915,0.856,�k��,5.4,��
2017/11/19,11:50,0.933,1.506,0.959,1.788,1.229,0.502,0.913,0.857,�k��,6.0,��
2017/11/19,12:00,0.934,1.507,0.955,1.790,1.229,0.504,0.914,0.858,�k��,6.1,�L
2017/11/19,12:10,0.933,1.508,0.957,1.791,1.229,0.500,0.914,0.857,�k��,4.6,��
2017/11/19,12:20,0.934,1.509,0.956,1.788,1.231,0.503,0.915,0.857,�k��,5.8,��
2017/11/19,12:30,0.934,1.508,0.955,1.788,1.230,0.503,0.915,0.858,�k�k��,5.9,��
2017/11/19,12:40,0.933,1.508,0.956,1.790,1.229,0.503,0.914,0.858,�k��,4.7,��
2017/11/19,12:50,0.934,1.508,0.959,1.791,1.232,0.501,0.914,0.857,�k��,6.0,��
2017/11/19,13:00,0.933,1.511,0.957,1.790,1.231,0.504,0.918,0.858,�k��,4.8,��
2017/11/19,13:10,0.932,1.508,0.958,1.792,1.230,0.502,0.915,0.858,�k�k��,4.5,��
2017/11/19,13:20,0.933,1.509,0.958,1.791,1.231,0.502,0.915,0.859,�k��,6.2,��
2017/11/19,13:30,0.935,1.510,0.956,1.793,1.232,0.503,0.916,0.858,�k��,6.2,��
2017/11/19,13:40,0.934,1.509,0.956,1.790,1.231,0.503,0.916,0.857,�k��,6.5,��
2017/11/19,13:50,0.933,1.507,0.957,1.790,1.233,0.504,0.916,0.858,�k��,4.9,��
2017/11/19,14:00,0.935,1.508,0.957,1.790,1.230,0.504,0.915,0.857,�k��,6.0,��
2017/11/19,14:10,0.933,1.510,0.959,1.789,1.229,0.504,0.914,0.858,�k��,5.8,��
2017/11/19,14:20,0.933,1.511,0.960,1.790,1.232,0.502,0.914,0.861,�k��,5.8,��
2017/11/19,14:30,0.934,1.508,0.958,1.789,1.232,0.504,0.916,0.858,�k��,5.4,��
2017/11/19,14:40,0.935,1.511,0.957,1.792,1.230,0.502,0.916,0.860,�k��,5.4,��
2017/11/19,14:50,0.934,1.507,0.958,1.789,1.230,0.503,0.913,0.859,�k��,4.0,��
2017/11/19,15:00,0.933,1.507,0.959,1.789,1.228,0.504,0.915,0.858,�k��,5.5,��
2017/11/19,15:10,0.935,1.509,0.957,1.792,1.231,0.502,0.918,0.859,�k��,4.9,��
2017/11/19,15:20,0.933,1.509,0.958,1.792,1.231,0.502,0.916,0.858,���k��,5.5,��
2017/11/19,15:30,0.933,1.507,0.957,1.792,1.230,0.503,0.919,0.858,��,6.3,��
2017/11/19,15:40,0.935,1.509,0.957,1.789,1.231,0.504,0.918,0.859,��,6.6,��
2017/11/19,15:50,0.934,1.510,0.957,1.790,1.230,0.503,0.918,0.859,��,6.5,��
2017/11/19,16:00,0.933,1.508,0.958,1.787,1.229,0.502,0.918,0.857,��,6.8,��
2017/11/19,16:10,0.933,1.512,0.957,1.788,1.231,0.503,0.918,0.856,���k��,6.9,��
2017/11/19,16:20,0.931,1.509,0.959,1.789,1.229,0.503,0.917,0.856,���k��,5.7,��
2017/11/19,16:30,0.932,1.508,0.956,1.789,1.229,0.503,0.916,0.860,���k��,7.5,��
2017/11/19,16:40,0.933,1.507,0.957,1.790,1.228,0.504,0.916,0.859,���k��,8.4,��
2017/11/19,16:50,0.932,1.511,0.954,1.789,1.230,0.504,0.918,0.860,���k��,6.5,��
2017/11/19,17:00,0.931,1.508,0.955,1.788,1.232,0.503,0.918,0.857,���k��,6.8,��
2017/11/19,17:10,0.932,1.508,0.956,1.787,1.229,0.502,0.916,0.858,�k��,6.1,��
2017/11/19,17:20,0.931,1.507,0.954,1.789,1.231,0.503,0.917,0.857,�k��,7.9,��
2017/11/19,17:30,0.931,1.509,0.958,1.792,1.230,0.503,0.918,0.857,�k��,8.4,��
2017/11/19,17:40,0.933,1.508,0.953,1.791,1.229,0.502,0.917,0.858,�k��,9.8,��
2017/11/19,17:50,0.931,1.508,0.956,1.788,1.229,0.502,0.917,0.858,�k��,10.0,��
2017/11/19,18:00,0.933,1.505,0.955,1.787,1.228,0.502,0.916,0.856,�k��,11.3,��
2017/11/19,18:10,0.929,1.508,0.955,1.789,1.229,0.503,0.916,0.859,�k��,10.3,��
2017/11/19,18:20,0.932,1.509,0.955,1.789,1.229,0.503,0.916,0.857,�k��,9.4,��
2017/11/19,18:30,0.928,1.507,0.955,1.789,1.232,0.502,0.916,0.859,�k��,9.1,��
2017/11/19,18:40,0.931,1.505,0.954,1.790,1.228,0.501,0.915,0.857,�k��,8.6,��
2017/11/19,18:50,0.927,1.508,0.953,1.789,1.228,0.502,0.917,0.857,���k��,9.3,��
2017/11/19,19:00,0.931,1.508,0.955,1.787,1.228,0.501,0.914,0.856,�k��,8.3,��
2017/11/19,19:10,0.929,1.508,0.955,1.789,1.229,0.503,0.916,0.856,���k��,8.4,��
2017/11/19,19:20,0.929,1.509,0.956,1.790,1.228,0.502,0.915,0.856,���k��,9.8,��
2017/11/19,19:30,0.930,1.508,0.956,1.787,1.230,0.502,0.915,0.857,���k��,8.9,��
2017/11/19,19:40,0.929,1.507,0.956,1.789,1.227,0.502,0.916,0.856,�k��,8.9,��
2017/11/19,19:50,0.931,1.506,0.956,1.787,1.229,0.501,0.915,0.858,�k��,9.4,��
2017/11/19,20:00,0.930,1.508,0.956,1.787,1.227,0.503,0.916,0.857,�k��,7.9,��
2017/11/19,20:10,0.931,1.507,0.955,1.792,1.229,0.500,0.916,0.858,�k��,7.7,��
2017/11/19,20:20,0.930,1.507,0.955,1.788,1.229,0.503,0.916,0.856,�k��,6.7,��
2017/11/19,20:30,0.928,1.506,0.956,1.790,1.228,0.503,0.915,0.855,�k��,8.7,��
2017/11/19,20:40,0.931,1.507,0.956,1.790,1.227,0.501,0.916,0.857,�k��,8.0,��
2017/11/19,20:50,0.929,1.505,0.954,1.788,1.227,0.502,0.916,0.857,�k��,6.6,��
2017/11/19,21:00,0.929,1.507,0.955,1.789,1.226,0.501,0.915,0.858,���k��,8.2,��
2017/11/19,21:10,0.931,1.508,0.955,1.789,1.229,0.502,0.916,0.854,���k��,8.8,��
2017/11/19,21:20,0.930,1.505,0.955,1.790,1.228,0.501,0.915,0.855,���k��,7.1,��
2017/11/19,21:30,0.931,1.505,0.955,1.788,1.226,0.502,0.916,0.857,�k��,6.9,��
2017/11/19,21:40,0.930,1.507,0.955,1.787,1.229,0.502,0.915,0.855,�k��,6.9,��
2017/11/19,21:50,0.930,1.506,0.956,1.789,1.229,0.500,0.916,0.856,�k��,5.7,��
2017/11/19,22:00,0.929,1.508,0.956,1.787,1.229,0.501,0.914,0.855,�k��,6.8,��
2017/11/19,22:10,0.928,1.508,0.956,1.789,1.227,0.501,0.917,0.855,�k��,6.8,��
2017/11/19,22:20,0.931,1.510,0.954,1.789,1.227,0.502,0.916,0.856,�k��,5.9,��
2017/11/19,22:30,0.930,1.504,0.955,1.788,1.226,0.501,0.915,0.856,�k��,6.3,��
2017/11/19,22:40,0.928,1.506,0.956,1.788,1.229,0.501,0.915,0.858,�k��,6.7,��
2017/11/19,22:50,0.929,1.506,0.953,1.787,1.229,0.502,0.915,0.855,�k��,6.4,��
2017/11/19,23:00,0.928,1.506,0.954,1.787,1.228,0.502,0.914,0.856,�k��,7.5,��
2017/11/19,23:10,0.930,1.504,0.956,1.790,1.229,0.501,0.913,0.855,�k�k��,7.5,��
2017/11/19,23:20,0.928,1.507,0.956,1.786,1.229,0.501,0.917,0.857,�k�k��,7.0,��
2017/11/19,23:30,0.930,1.504,0.954,1.788,1.226,0.502,0.916,0.856,�k�k��,7.5,��
2017/11/19,23:40,0.931,1.505,0.955,1.785,1.226,0.502,0.916,0.856,�k�k��,6.9,��
2017/11/19,23:50,0.928,1.507,0.953,1.787,1.227,0.500,0.913,0.856,�k�k��,7.0,��
